contact:dominique.lefevre@mio.osupytheas.fr, maurice.libes@osupytheas.fr, didier.mallarino@osupytheas.fr
Project:EMSO http://www.emso-fr.org/EMSO-France
Depth: 2436.0 m
Title:EMSO Ligure Ouest : Data MII capteur AQUADOPP
Date,Latitude,Longitude,X_East,Y_North,Z_Up,Amplitude_X,Amplitude_Y,Amplitude_Z,Batterie,SoundSpeed,Heading,Pitch,Roll,Pressure,TIS,Speed,Direction
, degrees North, degrees East, m.s-1, m.s-1,m.s-1, 1, 1, 1, Volt, m.s-1, degree, degree, degree, dbar, degree_C, m.s-1, degree
2021-03-29T00:04:03,42.805,6.029,-0.027,-0.002,-0.003,109.0,109.0,107.0,13.4,1505.2,327.3,-0.8,1.8,2470.033,13.28,0.027,265.8
2021-03-29T00:07:03,42.805,6.029,-0.004,-0.001,-0.004,110.0,109.0,106.0,13.3,1505.2,327.3,-0.8,1.8,2469.997,13.28,0.004,256.0
2021-03-29T00:10:03,42.805,6.029,-0.004,0.005,0.023,111.0,110.0,106.0,13.3,1505.2,327.1,-0.7,1.8,2470.011,13.28,0.006,321.3
2021-03-29T00:13:03,42.805,6.029,-0.006,-0.005,0.013,110.0,110.0,106.0,13.4,1505.2,326.7,-0.8,1.8,2469.996,13.28,0.007,230.2
2021-03-29T00:16:03,42.805,6.029,-0.022,-0.01,-0.021,110.0,111.0,107.0,13.3,1505.2,327.7,-0.7,1.8,2469.97,13.28,0.024,245.6
2021-03-29T00:19:03,42.805,6.029,-0.007,0.02,0.004,111.0,109.0,107.0,13.4,1505.2,327.6,-0.7,1.8,2469.979,13.28,0.021,340.7
2021-03-29T00:22:03,42.805,6.029,-0.015,0.007,-0.007,110.0,110.0,107.0,13.3,1505.2,327.1,-0.7,1.8,2469.999,13.29,0.016,295.0
2021-03-29T00:25:03,42.805,6.029,-0.031,0.007,0.005,109.0,112.0,106.0,13.4,1505.2,327.2,-0.8,1.8,2470.005,13.28,0.031,282.7
2021-03-29T00:28:03,42.805,6.029,-0.011,-0.006,-0.001,110.0,110.0,105.0,13.4,1505.2,327.4,-0.7,1.8,2469.989,13.28,0.012,241.4
2021-03-29T00:31:03,42.805,6.029,-0.035,0.008,-0.008,112.0,112.0,106.0,13.4,1505.2,327.2,-0.8,1.8,2469.979,13.28,0.035,282.9
2021-03-29T00:34:03,42.805,6.029,-0.003,-0.008,0.004,111.0,111.0,105.0,13.3,1505.2,327.2,-0.7,1.8,2469.991,13.29,0.008,200.6
2021-03-29T00:37:03,42.805,6.029,-0.033,0.001,-0.025,110.0,111.0,106.0,13.4,1505.2,327.5,-0.8,1.8,2469.948,13.29,0.033,271.7
2021-03-29T00:40:03,42.805,6.029,-0.02,-0.008,-0.011,111.0,110.0,107.0,13.4,1505.2,327.6,-0.8,1.8,2469.99,13.29,0.021,248.2
2021-03-29T00:43:03,42.805,6.029,-0.018,0.001,-0.002,109.0,110.0,106.0,13.4,1505.2,327.0,-0.8,1.8,2469.999,13.29,0.018,273.2
2021-03-29T00:46:03,42.805,6.029,-0.013,0.012,-0.011,110.0,111.0,104.0,13.3,1505.2,327.6,-0.8,1.8,2469.959,13.29,0.017,312.7
2021-03-29T00:49:03,42.805,6.029,-0.03,-0.006,-0.006,110.0,109.0,107.0,13.4,1505.2,327.7,-0.7,1.8,2469.981,13.29,0.03,258.7
2021-03-29T00:52:03,42.805,6.029,-0.026,-0.017,-0.009,110.0,110.0,107.0,13.4,1505.2,327.7,-0.8,1.8,2469.946,13.29,0.031,236.8
2021-03-29T00:55:03,42.805,6.029,-0.016,-0.003,-0.037,111.0,109.0,107.0,13.4,1505.2,327.0,-0.8,1.8,2469.96,13.28,0.016,259.4
2021-03-29T00:58:03,42.805,6.029,-0.018,0.0,-0.009,111.0,110.0,105.0,13.4,1505.2,327.4,-0.8,1.8,2469.953,13.29,0.018,270.0
2021-03-29T01:04:03,42.805,6.029,-0.025,-0.018,-0.017,110.0,109.0,107.0,13.3,1505.2,327.0,-0.8,1.8,2469.937,13.28,0.03,234.2
2021-03-29T01:07:03,42.805,6.029,-0.02,-0.009,-0.01,109.0,110.0,107.0,13.4,1505.2,327.6,-0.8,1.8,2469.954,13.28,0.021,245.8
2021-03-29T01:10:03,42.805,6.029,-0.016,0.0,-0.006,110.0,109.0,107.0,13.4,1505.2,327.7,-0.7,1.8,2469.958,13.28,0.016,270.0
2021-03-29T01:13:03,42.805,6.029,-0.024,0.001,0.0,111.0,109.0,105.0,13.4,1505.2,327.7,-0.7,1.8,2469.977,13.28,0.024,272.4
2021-03-29T01:16:03,42.805,6.029,-0.019,0.002,-0.007,111.0,110.0,104.0,13.4,1505.2,327.3,-0.7,1.8,2469.976,13.28,0.019,276.0
2021-03-29T01:19:03,42.805,6.029,-0.029,0.002,0.008,111.0,111.0,107.0,13.3,1505.2,327.3,-0.7,1.8,2469.972,13.28,0.029,273.9
2021-03-29T01:22:03,42.805,6.029,-0.024,0.003,-0.001,110.0,110.0,108.0,13.3,1505.2,327.6,-0.7,1.8,2469.965,13.28,0.024,277.1
2021-03-29T01:25:03,42.805,6.029,-0.018,-0.009,-0.021,110.0,109.0,105.0,13.4,1505.2,327.0,-0.8,1.8,2469.949,13.28,0.02,243.4
2021-03-29T01:28:03,42.805,6.029,-0.046,0.008,0.002,110.0,109.0,107.0,13.4,1505.2,327.8,-0.8,1.8,2469.929,13.28,0.046,279.9
2021-03-29T01:31:03,42.805,6.029,-0.025,0.011,0.001,111.0,109.0,106.0,13.3,1505.2,327.2,-0.8,1.8,2469.936,13.28,0.027,293.7
2021-03-29T01:34:03,42.805,6.029,-0.029,0.0,0.008,110.0,110.0,107.0,13.3,1505.2,327.7,-0.7,1.8,2469.945,13.28,0.028,270.0
2021-03-29T01:37:03,42.805,6.029,-0.027,0.004,-0.003,110.0,111.0,106.0,13.4,1505.2,327.6,-0.8,1.8,2469.917,13.29,0.027,278.4
2021-03-29T01:40:03,42.805,6.029,-0.028,-0.007,-0.009,110.0,110.0,107.0,13.4,1505.2,327.2,-0.7,1.8,2469.96,13.29,0.028,256.0
2021-03-29T01:43:03,42.805,6.029,-0.012,0.005,-0.006,111.0,111.0,106.0,13.4,1505.2,327.2,-0.8,1.9,2469.937,13.29,0.013,292.6
2021-03-29T01:46:03,42.805,6.029,-0.004,-0.001,0.005,110.0,110.0,107.0,13.4,1505.2,327.2,-0.7,1.8,2469.953,13.29,0.004,256.0
2021-03-29T01:49:03,42.805,6.029,-0.01,-0.011,-0.007,110.0,110.0,105.0,13.3,1505.2,327.2,-0.8,1.8,2469.936,13.29,0.014,222.3
2021-03-29T01:52:03,42.805,6.029,-0.017,0.029,-0.027,111.0,110.0,105.0,13.3,1505.2,327.0,-0.8,1.8,2469.93,13.28,0.033,329.6
2021-03-29T01:55:03,42.805,6.029,-0.017,0.02,0.002,109.0,110.0,106.0,13.3,1505.2,327.5,-0.7,1.8,2469.919,13.28,0.026,319.6
2021-03-29T01:58:03,42.805,6.029,-0.037,-0.002,-0.01,109.0,108.0,107.0,13.4,1505.2,327.5,-0.8,1.8,2469.891,13.28,0.037,266.9
2021-03-29T02:04:03,42.805,6.029,-0.038,-0.01,0.008,112.0,111.0,106.0,13.4,1505.2,327.2,-0.7,1.8,2469.921,13.28,0.039,255.3
2021-03-29T02:07:03,42.805,6.029,-0.007,-0.009,-0.007,112.0,110.0,106.0,13.4,1505.2,327.1,-0.7,1.8,2469.938,13.28,0.011,217.9
2021-03-29T02:10:03,42.805,6.029,-0.017,0.012,-0.036,111.0,110.0,106.0,13.4,1505.2,327.1,-0.8,1.8,2469.968,13.28,0.02,305.2
2021-03-29T02:13:03,42.805,6.029,-0.014,-0.013,0.001,110.0,111.0,106.0,13.3,1505.2,327.2,-0.8,1.8,2469.967,13.28,0.019,227.1
2021-03-29T02:16:03,42.805,6.029,-0.019,0.003,-0.018,110.0,110.0,106.0,13.3,1505.2,327.5,-0.8,1.8,2469.994,13.28,0.019,279.0
2021-03-29T02:19:03,42.805,6.029,-0.029,0.02,-0.005,110.0,110.0,106.0,13.4,1505.2,327.6,-0.7,1.8,2469.98,13.28,0.035,304.6
2021-03-29T02:22:03,42.805,6.029,-0.012,0.012,-0.016,110.0,110.0,106.0,13.3,1505.2,327.0,-0.7,1.8,2469.954,13.28,0.016,315.0
2021-03-29T02:25:03,42.805,6.029,-0.036,-0.007,0.015,108.0,110.0,106.0,13.3,1505.2,327.2,-0.8,1.8,2469.967,13.28,0.036,259.0
2021-03-29T02:28:03,42.805,6.029,-0.016,-0.002,-0.028,110.0,111.0,106.0,13.3,1505.2,327.3,-0.8,1.9,2469.97,13.28,0.016,262.9
2021-03-29T02:31:03,42.805,6.029,-0.012,-0.001,0.001,108.0,110.0,106.0,13.3,1505.2,327.5,-0.7,1.8,2469.958,13.28,0.012,265.2
2021-03-29T02:34:03,42.805,6.029,-0.018,0.01,-0.008,109.0,109.0,104.0,13.4,1505.2,327.6,-0.7,1.8,2469.942,13.28,0.02,299.1
2021-03-29T02:37:03,42.805,6.029,-0.031,0.01,-0.006,111.0,109.0,108.0,13.3,1505.2,327.8,-0.7,1.8,2469.953,13.28,0.032,287.9
2021-03-29T02:40:03,42.805,6.029,-0.012,-0.005,0.013,109.0,110.0,105.0,13.4,1505.2,327.6,-0.8,1.8,2469.944,13.28,0.013,247.4
2021-03-29T02:43:03,42.805,6.029,-0.021,0.007,0.004,112.0,110.0,106.0,13.3,1505.2,327.3,-0.8,1.8,2469.964,13.28,0.022,288.4
2021-03-29T02:46:03,42.805,6.029,-0.027,0.0,0.012,111.0,111.0,106.0,13.4,1505.2,327.1,-0.8,1.8,2469.919,13.28,0.026,270.0
2021-03-29T02:49:03,42.805,6.029,-0.018,0.007,-0.008,112.0,111.0,106.0,13.4,1505.2,327.6,-0.8,1.8,2469.931,13.29,0.019,291.2
2021-03-29T02:52:03,42.805,6.029,-0.017,0.012,-0.026,111.0,110.0,107.0,13.4,1505.2,327.2,-0.7,1.8,2469.938,13.29,0.02,305.2
2021-03-29T02:55:03,42.805,6.029,-0.03,-0.009,0.0,111.0,111.0,106.0,13.4,1505.2,327.1,-0.8,1.8,2469.96,13.29,0.031,253.3
2021-03-29T02:58:03,42.805,6.029,-0.029,0.011,-0.01,109.0,111.0,107.0,13.4,1505.2,327.2,-0.7,1.8,2469.905,13.29,0.031,290.8
2021-03-29T03:04:03,42.805,6.029,0.005,-0.014,0.006,112.0,109.0,107.0,13.4,1505.2,327.5,-0.8,1.8,2469.918,13.28,0.014,160.4
2021-03-29T03:07:03,42.805,6.029,-0.033,-0.006,-0.027,111.0,108.0,106.0,13.4,1505.2,327.6,-0.7,1.8,2469.905,13.28,0.033,259.7
2021-03-29T03:10:03,42.805,6.029,-0.03,0.016,-0.001,110.0,109.0,105.0,13.3,1505.2,327.1,-0.8,1.8,2469.916,13.28,0.034,298.1
2021-03-29T03:13:03,42.805,6.029,-0.016,0.008,-0.038,110.0,110.0,106.0,13.4,1505.2,327.5,-0.7,1.8,2469.928,13.28,0.017,296.6
2021-03-29T03:16:03,42.805,6.029,-0.016,0.002,-0.008,111.0,108.0,106.0,13.4,1505.2,327.5,-0.7,1.8,2469.947,13.28,0.016,277.1
2021-03-29T03:19:03,42.805,6.029,-0.03,-0.001,-0.002,112.0,111.0,107.0,13.4,1505.2,327.8,-0.7,1.8,2469.932,13.28,0.03,268.1
2021-03-29T03:22:03,42.805,6.029,-0.016,0.015,0.006,110.0,111.0,108.0,13.3,1505.2,327.2,-0.8,1.8,2469.92,13.28,0.021,313.1
2021-03-29T03:25:03,42.805,6.029,-0.022,0.008,0.035,111.0,109.0,105.0,13.4,1505.2,327.5,-0.8,1.8,2469.907,13.28,0.023,290.0
2021-03-29T03:28:03,42.805,6.029,-0.017,-0.005,0.01,110.0,111.0,106.0,13.4,1505.2,328.0,-0.8,1.8,2469.932,13.28,0.017,253.6
2021-03-29T03:31:03,42.805,6.029,-0.037,0.012,0.004,111.0,110.0,107.0,13.3,1505.2,327.0,-0.7,1.8,2469.943,13.29,0.038,288.0
2021-03-29T03:34:03,42.805,6.029,-0.023,0.005,0.014,112.0,111.0,106.0,13.4,1505.2,327.1,-0.8,1.8,2469.948,13.28,0.023,282.3
2021-03-29T03:37:03,42.805,6.029,-0.022,-0.015,0.001,112.0,110.0,107.0,13.4,1505.2,327.4,-0.7,1.8,2469.94,13.29,0.026,235.7
2021-03-29T03:40:03,42.805,6.029,0.001,0.001,-0.024,110.0,110.0,106.0,13.4,1505.2,327.3,-0.7,1.8,2469.945,13.29,0.001,45.0
2021-03-29T03:43:03,42.805,6.029,-0.032,-0.004,-0.007,111.0,109.0,107.0,13.4,1505.2,327.5,-0.8,1.8,2469.914,13.29,0.032,262.9
2021-03-29T03:46:03,42.805,6.029,-0.017,0.019,-0.039,111.0,109.0,107.0,13.3,1505.2,327.5,-0.8,1.8,2470.016,13.28,0.025,318.2
2021-03-29T03:49:03,42.805,6.029,-0.024,-0.005,-0.011,110.0,108.0,107.0,13.3,1505.2,327.1,-0.7,1.8,2469.999,13.28,0.024,258.2
2021-03-29T03:52:03,42.805,6.029,-0.034,0.005,-0.017,108.0,110.0,106.0,13.4,1505.2,327.8,-0.8,1.8,2469.979,13.29,0.034,278.4
2021-03-29T03:55:03,42.805,6.029,-0.018,-0.004,0.01,110.0,109.0,105.0,13.3,1505.2,327.0,-0.8,1.8,2469.962,13.29,0.018,257.5
2021-03-29T03:58:03,42.805,6.029,-0.014,0.008,0.0,109.0,110.0,105.0,13.3,1505.2,327.6,-0.8,1.8,2469.974,13.29,0.016,299.7
2021-03-29T04:04:03,42.805,6.029,-0.011,-0.004,0.027,110.0,109.0,105.0,13.3,1505.2,326.8,-0.8,1.8,2470.022,13.28,0.011,250.0
2021-03-29T04:07:03,42.805,6.029,-0.004,-0.001,0.011,109.0,108.0,107.0,13.4,1505.2,327.4,-0.8,1.8,2470.055,13.28,0.004,256.0
2021-03-29T04:10:03,42.805,6.029,-0.021,-0.025,-0.011,109.0,109.0,105.0,13.4,1505.2,327.1,-0.7,1.8,2469.981,13.28,0.032,220.0
2021-03-29T04:13:03,42.805,6.029,-0.015,0.008,-0.019,109.0,110.0,106.0,13.3,1505.2,327.0,-0.8,1.8,2470.012,13.28,0.017,298.1
2021-03-29T04:16:03,42.805,6.029,-0.034,0.01,-0.01,110.0,109.0,106.0,13.3,1505.2,327.1,-0.7,1.8,2470.02,13.28,0.035,286.4
2021-03-29T04:19:03,42.805,6.029,-0.018,-0.019,-0.011,110.0,107.0,107.0,13.4,1505.2,327.5,-0.8,1.8,2470.029,13.28,0.026,223.5
2021-03-29T04:22:03,42.805,6.029,-0.017,0.005,0.002,108.0,109.0,105.0,13.3,1505.2,327.5,-0.8,1.8,2470.008,13.28,0.017,286.4
2021-03-29T04:25:03,42.805,6.029,-0.018,-0.003,0.016,110.0,110.0,105.0,13.4,1505.2,327.2,-0.8,1.8,2470.048,13.28,0.018,260.5
2021-03-29T04:28:03,42.805,6.029,-0.022,0.002,-0.003,110.0,107.0,106.0,13.4,1505.2,327.0,-0.8,1.8,2470.043,13.28,0.022,275.2
2021-03-29T04:31:03,42.805,6.029,-0.017,0.0,0.008,112.0,110.0,105.0,13.4,1505.2,327.9,-0.7,1.9,2470.023,13.28,0.017,270.0
2021-03-29T04:34:03,42.805,6.029,-0.011,0.003,-0.015,109.0,109.0,106.0,13.4,1505.2,327.3,-0.8,1.9,2470.081,13.28,0.011,285.3
2021-03-29T04:37:03,42.805,6.029,0.0,0.006,-0.006,109.0,109.0,104.0,13.3,1505.2,327.7,-0.7,1.8,2470.042,13.29,0.006,0.0
2021-03-29T04:40:03,42.805,6.029,-0.014,-0.005,0.025,107.0,108.0,106.0,13.4,1505.2,327.3,-0.8,1.9,2470.075,13.29,0.014,250.4
2021-03-29T04:43:03,42.805,6.029,-0.026,-0.016,0.0,110.0,109.0,105.0,13.3,1505.2,327.2,-0.8,1.9,2470.097,13.29,0.03,238.4
2021-03-29T04:46:03,42.805,6.029,-0.021,-0.015,-0.015,110.0,109.0,105.0,13.4,1505.2,327.6,-0.8,1.8,2470.038,13.29,0.025,234.5
2021-03-29T04:49:03,42.805,6.029,-0.033,-0.002,0.005,108.0,109.0,106.0,13.3,1505.2,327.6,-0.8,1.8,2470.06,13.29,0.033,266.5
2021-03-29T04:52:03,42.805,6.029,0.001,-0.017,-0.016,111.0,109.0,106.0,13.4,1505.2,327.1,-0.8,1.8,2470.098,13.29,0.017,176.6
2021-03-29T04:55:03,42.805,6.029,-0.016,0.007,-0.011,111.0,109.0,105.0,13.3,1505.2,327.1,-0.7,1.8,2470.061,13.29,0.017,293.6
2021-03-29T04:58:03,42.805,6.029,-0.027,0.011,-0.011,111.0,109.0,106.0,13.4,1505.2,327.2,-0.8,1.8,2470.089,13.29,0.029,292.2
2021-03-29T05:04:03,42.805,6.029,0.0,-0.001,0.0,110.0,109.0,105.0,13.3,1505.2,327.1,-0.7,1.8,2470.084,13.28,0.001,180.0
2021-03-29T05:07:03,42.805,6.029,-0.009,-0.01,-0.015,109.0,108.0,106.0,13.3,1505.2,327.4,-0.7,1.8,2470.094,13.28,0.013,222.0
2021-03-29T05:10:03,42.805,6.029,0.003,-0.009,-0.005,109.0,109.0,105.0,13.4,1505.2,327.8,-0.8,1.8,2470.109,13.28,0.009,161.6
2021-03-29T05:13:03,42.805,6.029,-0.012,0.001,-0.014,110.0,110.0,106.0,13.3,1505.2,327.1,-0.8,1.8,2470.063,13.28,0.012,274.8
2021-03-29T05:16:03,42.805,6.029,-0.02,-0.011,-0.016,109.0,108.0,106.0,13.4,1505.2,327.2,-0.8,1.8,2470.122,13.29,0.022,241.2
2021-03-29T05:19:03,42.805,6.029,-0.008,-0.009,-0.005,110.0,110.0,105.0,13.4,1505.2,327.4,-0.7,1.8,2470.121,13.29,0.012,221.6
2021-03-29T05:22:03,42.805,6.029,-0.007,-0.011,-0.006,109.0,109.0,106.0,13.3,1505.2,327.6,-0.7,1.8,2470.132,13.29,0.013,212.5
2021-03-29T05:25:03,42.805,6.029,-0.038,0.006,0.006,108.0,108.0,105.0,13.3,1505.2,327.1,-0.8,1.8,2470.144,13.29,0.038,279.0
2021-03-29T05:28:03,42.805,6.029,-0.027,0.002,0.006,109.0,108.0,105.0,13.3,1505.2,327.6,-0.8,1.9,2470.122,13.29,0.027,274.2
2021-03-29T05:31:03,42.805,6.029,-0.031,-0.014,0.003,110.0,108.0,105.0,13.4,1505.2,327.3,-0.7,1.8,2470.112,13.29,0.034,245.7
2021-03-29T05:34:03,42.805,6.029,-0.028,-0.008,-0.013,108.0,108.0,105.0,13.3,1505.2,327.4,-0.8,1.8,2470.125,13.29,0.029,254.1
2021-03-29T05:37:03,42.805,6.029,-0.03,-0.014,-0.012,108.0,108.0,105.0,13.4,1505.2,327.3,-0.8,1.8,2470.126,13.29,0.033,245.0
2021-03-29T05:40:03,42.805,6.029,-0.022,-0.01,0.009,107.0,108.0,106.0,13.4,1505.2,327.6,-0.7,1.8,2470.136,13.29,0.024,245.6
2021-03-29T05:43:03,42.805,6.029,-0.007,-0.01,-0.019,108.0,108.0,103.0,13.4,1505.2,327.1,-0.8,1.8,2470.126,13.29,0.012,215.0
2021-03-29T05:46:03,42.805,6.029,-0.022,-0.011,-0.006,108.0,107.0,105.0,13.3,1505.2,327.3,-0.8,1.8,2470.128,13.29,0.024,243.4
2021-03-29T05:49:03,42.805,6.029,-0.017,0.001,0.002,106.0,106.0,104.0,13.4,1505.2,327.5,-0.8,1.8,2470.154,13.29,0.017,273.4
2021-03-29T05:52:03,42.805,6.029,-0.005,-0.01,-0.024,107.0,106.0,104.0,13.3,1505.2,327.5,-0.8,1.8,2470.157,13.29,0.011,206.6
2021-03-29T05:55:03,42.805,6.029,-0.008,-0.001,0.007,108.0,108.0,104.0,13.4,1505.2,327.6,-0.7,1.8,2470.147,13.29,0.008,262.9
2021-03-29T05:58:03,42.805,6.029,-0.017,0.003,0.017,109.0,107.0,104.0,13.4,1505.2,327.1,-0.8,1.8,2470.145,13.29,0.017,280.0
2021-03-29T06:04:03,42.805,6.029,-0.017,-0.004,-0.02,107.0,106.0,105.0,13.4,1505.2,327.5,-0.8,1.8,2470.21,13.28,0.017,256.8
2021-03-29T06:07:03,42.805,6.029,-0.007,-0.018,-0.009,107.0,108.0,104.0,13.4,1505.2,327.4,-0.7,1.9,2470.217,13.28,0.019,201.2
2021-03-29T06:10:03,42.805,6.029,-0.02,0.007,-0.008,108.0,107.0,104.0,13.4,1505.2,327.2,-0.7,1.8,2470.171,13.28,0.021,289.3
2021-03-29T06:13:03,42.805,6.029,-0.021,-0.014,0.005,108.0,106.0,105.0,13.4,1505.2,327.2,-0.8,1.9,2470.175,13.29,0.025,236.3
2021-03-29T06:16:03,42.805,6.029,-0.026,-0.016,0.013,107.0,107.0,104.0,13.4,1505.2,327.4,-0.8,1.8,2470.148,13.29,0.03,238.4
2021-03-29T06:19:03,42.805,6.029,-0.006,-0.013,-0.018,108.0,107.0,105.0,13.4,1505.2,327.6,-0.7,1.8,2470.173,13.29,0.014,204.8
2021-03-29T06:22:03,42.805,6.029,-0.006,-0.007,-0.016,108.0,107.0,107.0,13.4,1505.2,326.7,-0.8,1.8,2470.159,13.29,0.009,220.6
2021-03-29T06:25:03,42.805,6.029,-0.008,-0.011,0.004,108.0,107.0,105.0,13.3,1505.2,327.8,-0.7,1.8,2470.19,13.29,0.013,216.0
2021-03-29T06:28:03,42.805,6.029,-0.027,-0.014,-0.028,108.0,110.0,104.0,13.4,1505.2,327.6,-0.7,1.8,2470.241,13.29,0.03,242.6
2021-03-29T06:31:03,42.805,6.029,-0.005,-0.005,0.017,107.0,107.0,106.0,13.4,1505.2,327.1,-0.8,1.8,2470.192,13.29,0.007,225.0
2021-03-29T06:34:03,42.805,6.029,0.0,-0.009,-0.029,108.0,108.0,106.0,13.3,1505.2,327.3,-0.8,1.8,2470.167,13.29,0.009,180.0
2021-03-29T06:37:03,42.805,6.029,-0.011,-0.009,-0.012,108.0,106.0,104.0,13.4,1505.2,327.1,-0.8,1.8,2470.179,13.29,0.014,230.7
2021-03-29T06:40:03,42.805,6.029,-0.02,-0.011,0.004,107.0,106.0,106.0,13.4,1505.2,326.8,-0.7,1.8,2470.199,13.29,0.022,241.2
2021-03-29T06:43:03,42.805,6.029,-0.018,-0.002,-0.009,108.0,107.0,105.0,13.4,1505.2,327.5,-0.7,1.8,2470.194,13.29,0.018,263.7
2021-03-29T06:46:03,42.805,6.029,-0.035,-0.004,-0.007,108.0,107.0,104.0,13.4,1505.2,327.0,-0.8,1.8,2470.16,13.29,0.035,263.5
2021-03-29T06:49:03,42.805,6.029,-0.008,-0.011,0.001,106.0,108.0,106.0,13.3,1505.2,327.5,-0.7,1.8,2470.163,13.29,0.013,216.0
2021-03-29T06:52:03,42.805,6.029,-0.016,-0.022,-0.017,107.0,106.0,104.0,13.4,1505.2,327.7,-0.7,1.8,2470.156,13.29,0.027,216.0
2021-03-29T06:55:03,42.805,6.029,-0.025,-0.018,0.006,107.0,106.0,102.0,13.4,1505.2,327.1,-0.7,1.8,2470.161,13.29,0.03,234.2
2021-03-29T06:58:03,42.805,6.029,-0.008,-0.026,-0.01,108.0,106.0,106.0,13.4,1505.2,327.5,-0.7,1.8,2470.17,13.29,0.027,197.1
2021-03-29T07:04:03,42.805,6.029,-0.021,-0.003,0.004,108.0,107.0,103.0,13.3,1505.2,327.2,-0.8,1.8,2470.156,13.28,0.021,261.9
2021-03-29T07:07:03,42.805,6.029,-0.012,-0.019,0.009,106.0,107.0,105.0,13.4,1505.2,327.4,-0.8,1.8,2470.151,13.28,0.022,212.3
2021-03-29T07:10:03,42.805,6.029,-0.01,0.0,-0.02,106.0,107.0,103.0,13.4,1505.2,327.7,-0.8,1.8,2470.178,13.28,0.01,270.0
2021-03-29T07:13:03,42.805,6.029,-0.02,-0.005,-0.018,107.0,104.0,104.0,13.4,1505.2,327.6,-0.8,1.9,2470.178,13.28,0.02,256.0
2021-03-29T07:16:03,42.805,6.029,-0.011,-0.009,0.033,107.0,106.0,103.0,13.4,1505.2,327.7,-0.8,1.9,2470.145,13.28,0.014,230.7
2021-03-29T07:19:03,42.805,6.029,-0.013,-0.017,-0.011,108.0,106.0,104.0,13.4,1505.2,327.5,-0.8,1.8,2470.174,13.29,0.021,217.4
2021-03-29T07:22:03,42.805,6.029,-0.01,-0.009,-0.027,107.0,107.0,104.0,13.3,1505.2,327.7,-0.8,1.8,2470.171,13.29,0.013,228.0
2021-03-29T07:25:03,42.805,6.029,-0.001,-0.001,-0.008,108.0,107.0,103.0,13.4,1505.2,327.5,-0.7,1.8,2470.151,13.29,0.001,225.0
2021-03-29T07:28:03,42.805,6.029,-0.035,-0.027,0.023,108.0,108.0,104.0,13.4,1505.2,327.5,-0.7,1.8,2470.169,13.29,0.044,232.3
2021-03-29T07:31:03,42.805,6.029,-0.015,-0.012,-0.003,108.0,107.0,104.0,13.3,1505.2,326.9,-0.8,1.8,2470.169,13.29,0.019,231.3
2021-03-29T07:34:03,42.805,6.029,-0.02,-0.04,-0.008,108.0,107.0,103.0,13.3,1505.2,327.3,-0.8,1.8,2470.129,13.29,0.044,206.6
2021-03-29T07:37:03,42.805,6.029,-0.012,-0.02,-0.001,108.0,107.0,104.0,13.4,1505.2,327.0,-0.7,1.8,2470.136,13.29,0.023,211.0
2021-03-29T07:40:03,42.805,6.029,-0.042,-0.008,0.012,107.0,106.0,104.0,13.3,1505.2,327.1,-0.8,1.8,2470.198,13.29,0.042,259.2
2021-03-29T07:43:03,42.805,6.029,-0.008,-0.005,0.001,106.0,107.0,104.0,13.3,1505.2,327.4,-0.8,1.8,2470.175,13.29,0.009,238.0
2021-03-29T07:46:03,42.805,6.029,-0.005,-0.001,0.011,108.0,105.0,104.0,13.3,1505.2,327.5,-0.8,1.8,2470.159,13.29,0.005,258.7
2021-03-29T07:49:03,42.805,6.029,0.002,-0.008,-0.008,106.0,108.0,103.0,13.3,1505.2,327.3,-0.7,1.8,2470.148,13.29,0.008,166.0
2021-03-29T07:52:03,42.805,6.029,-0.016,-0.002,-0.008,107.0,107.0,104.0,13.4,1505.2,327.7,-0.7,1.8,2470.186,13.29,0.016,262.9
2021-03-29T07:55:03,42.805,6.029,-0.019,-0.035,-0.007,106.0,106.0,104.0,13.4,1505.2,327.3,-0.8,1.8,2470.165,13.29,0.039,208.5
2021-03-29T07:58:03,42.805,6.029,-0.013,-0.023,0.006,107.0,106.0,103.0,13.4,1505.2,327.0,-0.7,1.8,2470.167,13.29,0.026,209.5
2021-03-29T08:04:03,42.805,6.029,-0.018,-0.019,-0.011,107.0,107.0,105.0,13.4,1505.2,327.7,-0.8,1.8,2470.159,13.28,0.026,223.5
2021-03-29T08:07:02,42.805,6.029,-0.02,-0.007,0.022,106.0,108.0,104.0,13.3,1505.2,327.7,-0.7,1.8,2470.159,13.28,0.021,250.7
2021-03-29T08:10:03,42.805,6.029,-0.014,-0.008,-0.006,107.0,105.0,104.0,13.3,1505.2,327.0,-0.8,1.8,2470.142,13.28,0.016,240.3
2021-03-29T08:13:03,42.805,6.029,-0.004,-0.004,0.0,106.0,106.0,104.0,13.3,1505.2,327.0,-0.8,1.8,2470.161,13.28,0.005,225.0
2021-03-29T08:16:03,42.805,6.029,-0.017,-0.019,-0.019,106.0,105.0,102.0,13.4,1505.2,327.3,-0.7,1.8,2470.166,13.28,0.025,221.8
2021-03-29T08:19:03,42.805,6.029,-0.002,-0.017,-0.008,106.0,105.0,102.0,13.4,1505.2,327.7,-0.8,1.8,2470.19,13.28,0.017,186.7
2021-03-29T08:22:03,42.805,6.029,-0.027,-0.013,-0.007,106.0,106.0,104.0,13.4,1505.2,327.2,-0.8,1.8,2470.155,13.28,0.029,244.3
2021-03-29T08:25:03,42.805,6.029,-0.004,-0.039,0.007,106.0,106.0,103.0,13.4,1505.2,327.1,-0.7,1.8,2470.177,13.28,0.039,185.9
2021-03-29T08:28:02,42.805,6.029,-0.015,-0.018,-0.008,107.0,107.0,104.0,13.4,1505.2,327.8,-0.8,1.8,2470.166,13.28,0.023,219.8
2021-03-29T08:31:03,42.805,6.029,-0.011,-0.022,-0.009,107.0,106.0,103.0,13.4,1505.2,327.0,-0.8,1.8,2470.181,13.28,0.024,206.6
2021-03-29T08:34:03,42.805,6.029,-0.01,-0.006,0.017,106.0,106.0,104.0,13.3,1505.2,327.1,-0.7,1.8,2470.125,13.28,0.011,239.0
2021-03-29T08:37:02,42.805,6.029,-0.003,-0.027,-0.012,108.0,108.0,104.0,13.4,1505.2,327.4,-0.7,1.8,2470.167,13.29,0.027,186.3
2021-03-29T08:40:02,42.805,6.029,-0.02,-0.025,-0.009,109.0,107.0,105.0,13.4,1505.2,327.1,-0.7,1.8,2470.212,13.29,0.032,218.7
2021-03-29T08:43:02,42.805,6.029,-0.007,-0.023,0.011,110.0,108.0,104.0,13.4,1505.2,328.0,-0.8,1.8,2470.179,13.29,0.024,196.9
2021-03-29T08:46:02,42.805,6.029,-0.011,-0.022,0.006,109.0,110.0,106.0,13.3,1505.2,327.0,-0.8,1.8,2470.207,13.29,0.024,206.6
2021-03-29T08:49:02,42.805,6.029,-0.004,-0.006,0.021,108.0,109.0,103.0,13.4,1505.2,327.4,-0.8,1.8,2470.192,13.28,0.007,213.7
2021-03-29T08:52:02,42.805,6.029,-0.017,-0.019,0.017,107.0,109.0,105.0,13.4,1505.2,327.4,-0.8,1.8,2470.186,13.28,0.025,221.8
2021-03-29T08:55:02,42.805,6.029,-0.017,-0.023,-0.009,109.0,108.0,105.0,13.3,1505.2,326.8,-0.8,1.8,2470.162,13.28,0.028,216.5
2021-03-29T08:58:02,42.805,6.029,-0.005,-0.015,-0.007,110.0,108.0,104.0,13.3,1505.2,327.2,-0.8,1.9,2470.175,13.28,0.015,198.4
2021-03-29T09:04:02,42.805,6.029,-0.027,-0.027,-0.017,109.0,109.0,105.0,13.4,1505.2,327.7,-0.8,1.8,2470.176,13.28,0.038,225.0
2021-03-29T09:07:02,42.805,6.029,-0.011,-0.024,-0.048,109.0,108.0,105.0,13.4,1505.2,327.0,-0.8,1.8,2470.168,13.28,0.026,204.6
2021-03-29T09:10:02,42.805,6.029,-0.035,-0.018,0.015,108.0,107.0,106.0,13.4,1505.2,327.0,-0.7,1.9,2470.181,13.28,0.039,242.8
2021-03-29T09:13:02,42.805,6.029,-0.018,0.002,0.003,109.0,108.0,105.0,13.4,1505.2,327.5,-0.8,1.8,2470.164,13.28,0.018,276.3
2021-03-29T09:16:03,42.805,6.029,-0.029,-0.014,0.027,109.0,108.0,106.0,13.4,1505.2,327.3,-0.8,1.8,2470.166,13.28,0.032,244.2
2021-03-29T09:19:03,42.805,6.029,-0.019,-0.027,-0.016,109.0,108.0,105.0,13.3,1505.2,327.7,-0.7,1.9,2470.164,13.28,0.033,215.1
2021-03-29T09:22:02,42.805,6.029,-0.009,-0.012,0.035,108.0,108.0,105.0,13.4,1505.2,327.4,-0.8,1.8,2470.176,13.28,0.015,216.9
2021-03-29T09:25:03,42.805,6.029,-0.021,-0.027,-0.011,107.0,108.0,104.0,13.3,1505.2,327.2,-0.8,1.8,2470.169,13.28,0.034,217.9
2021-03-29T09:28:03,42.805,6.029,-0.017,-0.01,-0.006,109.0,108.0,105.0,13.3,1505.2,327.0,-0.8,1.8,2470.154,13.28,0.019,239.5
2021-03-29T09:31:03,42.805,6.029,-0.026,-0.005,-0.02,108.0,109.0,106.0,13.4,1505.2,327.3,-0.8,1.8,2470.144,13.28,0.026,259.1
2021-03-29T09:34:02,42.805,6.029,-0.007,-0.009,0.014,108.0,110.0,105.0,13.4,1505.2,327.7,-0.7,1.8,2470.187,13.28,0.011,217.9
2021-03-29T09:37:02,42.805,6.029,-0.033,-0.011,-0.005,109.0,108.0,105.0,13.3,1505.2,327.5,-0.8,1.8,2470.135,13.28,0.034,251.6
2021-03-29T09:40:03,42.805,6.029,-0.037,-0.018,-0.026,109.0,107.0,104.0,13.3,1505.2,327.5,-0.7,1.8,2470.197,13.28,0.041,244.1
2021-03-29T09:43:03,42.805,6.029,-0.018,-0.017,-0.009,109.0,109.0,105.0,13.4,1505.2,327.6,-0.7,1.8,2470.159,13.28,0.024,226.6
2021-03-29T09:46:03,42.805,6.029,-0.012,-0.022,-0.028,109.0,107.0,104.0,13.4,1505.2,327.6,-0.7,1.8,2470.142,13.28,0.025,208.6
2021-03-29T09:49:03,42.805,6.029,-0.004,-0.018,-0.021,109.0,109.0,105.0,13.4,1505.2,327.0,-0.8,1.9,2470.161,13.28,0.018,192.5
2021-03-29T09:52:02,42.805,6.029,-0.022,-0.021,0.011,110.0,109.0,106.0,13.4,1505.2,327.3,-0.7,1.8,2470.157,13.28,0.03,226.3